When you browse on this site, cookies collect data to enhance your experience and personalize the content and advertising you see.
Visit our Privacy Policy to learn more. By continuing to use the site, you agree to this use of cookies and data.

Meteo pe oră la Warwick

Astăzi, 21 Septembrie, Luni

Timp Temperatura Precipitaţii Vânt Presiune Umiditate
00:00 +12°C° 0 mm 1 m/s 760 mmHg 95%
01:00 +12°C° 0 mm 1 m/s 759 mmHg 95%
02:00 +12°C° 0 mm 1 m/s 759 mmHg 95%
03:00 +12°C° 0 mm 1 m/s 759 mmHg 95%
04:00 +12°C° 0 mm 1 m/s 759 mmHg 94%
05:00 +11°C° 0 mm 0 m/s 759 mmHg 94%
06:00 +10°C° 0 mm 0 m/s 759 mmHg 93%
07:00 +12°C° 0 mm 0 m/s 759 mmHg 87%
08:00 +14°C° 0 mm 0 m/s 758 mmHg 81%
09:00 +18°C° 0 mm 1 m/s 758 mmHg 75%
10:00 +19°C° 0 mm 1 m/s 758 mmHg 71%
11:00 +21°C° 0 mm 1 m/s 758 mmHg 66%
12:00 +23°C° 0 mm 1 m/s 758 mmHg 62%
13:00 +24°C° 0 mm 2 m/s 758 mmHg 61%
14:00 +24°C° 0 mm 2 m/s 757 mmHg 59%
15:00 +25°C° 0 mm 2 m/s 757 mmHg 58%
16:00 +24°C° 0 mm 2 m/s 756 mmHg 64%
17:00 +22°C° 0 mm 1 m/s 756 mmHg 70%
18:00 +21°C° 0 mm 1 m/s 756 mmHg 77%
19:00 +20°C° 0 mm 1 m/s 756 mmHg 79%
20:00 +19°C° 0 mm 1 m/s 756 mmHg 82%
21:00 +19°C° 0 mm 1 m/s 756 mmHg 85%
22:00 +18°C° 0 mm 1 m/s 756 mmHg 87%
23:00 +18°C° 0 mm 1 m/s 755 mmHg 88%

Mâine, 22 Septembrie, Marţi

Timp Temperatura Precipitaţii Vânt Presiune Umiditate
00:00 +16°C° 0 mm 1 m/s 755 mmHg 90%
01:00 +16°C° 0 mm 1 m/s 754 mmHg 91%
02:00 +16°C° 0 mm 1 m/s 754 mmHg 91%
03:00 +15°C° 0 mm 1 m/s 754 mmHg 92%
04:00 +15°C° 0 mm 1 m/s 753 mmHg 92%
05:00 +15°C° 0 mm 2 m/s 753 mmHg 92%
06:00 +15°C° 0 mm 2 m/s 752 mmHg 92%
07:00 +16°C° 0 mm 2 m/s 752 mmHg 86%
08:00 +18°C° 0 mm 3 m/s 752 mmHg 79%
09:00 +19°C° 0 mm 3 m/s 752 mmHg 72%
10:00 +21°C° 0 mm 4 m/s 751 mmHg 65%
11:00 +22°C° 0 mm 5 m/s 751 mmHg 57%
12:00 +23°C° 0 mm 5 m/s 750 mmHg 50%
13:00 +23°C° 0 mm 5 m/s 750 mmHg 52%
14:00 +23°C° 0 mm 5 m/s 749 mmHg 53%
15:00 +23°C° 0 mm 6 m/s 749 mmHg 55%
16:00 +22°C° 0 mm 5 m/s 748 mmHg 62%
17:00 +21°C° 0 mm 4 m/s 748 mmHg 68%
18:00 +19°C° 0 mm 4 m/s 747 mmHg 74%
19:00 +19°C° 0 mm 4 m/s 747 mmHg 75%
20:00 +18°C° 0 mm 4 m/s 747 mmHg 76%
21:00 +17°C° 0 mm 4 m/s 747 mmHg 77%
22:00 +17°C° 0 mm 4 m/s 747 mmHg 79%
23:00 +15°C° 0 mm 4 m/s 747 mmHg 81%

Poimâine, 23 Septembrie, Miercuri

Timp Temperatura Precipitaţii Vânt Presiune Umiditate
00:00 +15°C° 0 mm 4 m/s 747 mmHg 82%
01:00 +14°C° 0 mm 4 m/s 746 mmHg 86%
02:00 +14°C° 0 mm 4 m/s 746 mmHg 89%
03:00 +13°C° 0 mm 3 m/s 746 mmHg 92%
04:00 +13°C° 0 mm 3 m/s 746 mmHg 91%
05:00 +13°C° 0 mm 3 m/s 745 mmHg 91%
06:00 +13°C° 0 mm 3 m/s 745 mmHg 90%
07:00 +14°C° 0.1 mm 3 m/s 745 mmHg 88%
08:00 +14°C° 0.1 mm 3 m/s 745 mmHg 87%
09:00 +14°C° 0.1 mm 3 m/s 745 mmHg 85%
10:00 +14°C° 1.2 mm 3 m/s 745 mmHg 86%
11:00 +13°C° 1.2 mm 3 m/s 745 mmHg 88%
12:00 +13°C° 1.2 mm 3 m/s 745 mmHg 89%
13:00 +13°C° 2.4 mm 3 m/s 744 mmHg 90%
14:00 +12°C° 2.4 mm 3 m/s 744 mmHg 91%
15:00 +13°C° 2.4 mm 2 m/s 744 mmHg 91%
16:00 +13°C° 0.5 mm 2 m/s 744 mmHg 90%
17:00 +11°C° 0.5 mm 3 m/s 744 mmHg 89%
18:00 +11°C° 0.5 mm 3 m/s 743 mmHg 88%
19:00 +11°C° 0.2 mm 4 m/s 744 mmHg 85%
20:00 +10°C° 0.2 mm 4 m/s 744 mmHg 82%
21:00 +8°C° 0.2 mm 5 m/s 744 mmHg 80%
22:00 +7°C° 0 mm 5 m/s 745 mmHg 81%
23:00 +7°C° 0 mm 4 m/s 745 mmHg 83%

24 Septembrie, Joi

Timp Temperatura Precipitaţii Vânt Presiune Umiditate
00:00 +6°C° 0 mm 4 m/s 745 mmHg 85%
01:00 +6°C° 0 mm 4 m/s 745 mmHg 86%
02:00 +7°C° 0 mm 3 m/s 745 mmHg 86%
03:00 +7°C° 0 mm 3 m/s 744 mmHg 86%
04:00 +7°C° 0.1 mm 3 m/s 744 mmHg 86%
05:00 +6°C° 0.1 mm 4 m/s 744 mmHg 86%
06:00 +7°C° 0.1 mm 4 m/s 744 mmHg 86%
07:00 +8°C° 0.4 mm 5 m/s 743 mmHg 82%
08:00 +9°C° 0.4 mm 6 m/s 743 mmHg 78%
09:00 +10°C° 0.4 mm 7 m/s 742 mmHg 74%
10:00 +11°C° 0.5 mm 7 m/s 742 mmHg 72%
11:00 +11°C° 0.5 mm 7 m/s 742 mmHg 69%
12:00 +11°C° 0.5 mm 7 m/s 742 mmHg 67%
13:00 +11°C° 0.3 mm 7 m/s 741 mmHg 66%
14:00 +11°C° 0.3 mm 7 m/s 741 mmHg 65%
15:00 +11°C° 0.3 mm 7 m/s 741 mmHg 64%
16:00 +10°C° 0.1 mm 6 m/s 740 mmHg 68%
17:00 +9°C° 0.1 mm 5 m/s 740 mmHg 72%
18:00 +8°C° 0.1 mm 4 m/s 740 mmHg 75%
19:00 +8°C° 0.2 mm 4 m/s 740 mmHg 77%
20:00 +7°C° 0.2 mm 4 m/s 740 mmHg 79%
21:00 +7°C° 0.2 mm 4 m/s 740 mmHg 81%
22:00 +8°C° 0 mm 3 m/s 740 mmHg 83%
23:00 +7°C° 0 mm 2 m/s 740 mmHg 85%

25 Septembrie, Vineri

Timp Temperatura Precipitaţii Vânt Presiune Umiditate
00:00 +7°C° 0 mm 2 m/s 741 mmHg 88%
01:00 +7°C° 0 mm 3 m/s 741 mmHg 86%
02:00 +6°C° 0 mm 4 m/s 742 mmHg 85%
03:00 +7°C° 0 mm 5 m/s 742 mmHg 84%
04:00 +7°C° 0 mm 5 m/s 743 mmHg 84%
05:00 +5°C° 0 mm 6 m/s 744 mmHg 84%
06:00 +5°C° 0 mm 6 m/s 745 mmHg 84%
07:00 +6°C° 0 mm 7 m/s 746 mmHg 80%
08:00 +7°C° 0 mm 8 m/s 747 mmHg 75%
09:00 +7°C° 0 mm 9 m/s 748 mmHg 71%
10:00 +8°C° 0.1 mm 9 m/s 749 mmHg 67%
11:00 +10°C° 0.1 mm 9 m/s 750 mmHg 63%
12:00 +11°C° 0.1 mm 10 m/s 751 mmHg 59%
13:00 +11°C° 0.2 mm 9 m/s 752 mmHg 60%
14:00 +11°C° 0.2 mm 9 m/s 753 mmHg 61%
15:00 +11°C° 0.2 mm 9 m/s 753 mmHg 62%
16:00 +10°C° 0.1 mm 8 m/s 754 mmHg 65%
17:00 +9°C° 0.1 mm 6 m/s 755 mmHg 68%
18:00 +8°C° 0.1 mm 5 m/s 756 mmHg 70%
19:00 +8°C° 0 mm 5 m/s 757 mmHg 71%
20:00 +7°C° 0 mm 5 m/s 758 mmHg 72%
21:00 +6°C° 0 mm 4 m/s 758 mmHg 73%
22:00 +6°C° 0 mm 4 m/s 759 mmHg 75%
23:00 +6°C° 0 mm 4 m/s 759 mmHg 77%

26 Septembrie, Sâmbătă

Timp Temperatura Precipitaţii Vânt Presiune Umiditate
00:00 +5°C° 0 mm 4 m/s 759 mmHg 79%
01:00 +5°C° 0 mm 3 m/s 759 mmHg 80%
02:00 +4°C° 0 mm 3 m/s 759 mmHg 81%
03:00 +4°C° 0 mm 3 m/s 759 mmHg 82%
04:00 +4°C° 0 mm 3 m/s 759 mmHg 82%
05:00 +4°C° 0 mm 3 m/s 759 mmHg 81%
06:00 +4°C° 0 mm 3 m/s 759 mmHg 81%
07:00 +5°C° 0 mm 3 m/s 759 mmHg 79%
08:00 +8°C° 0 mm 3 m/s 759 mmHg 77%
09:00 +9°C° 0 mm 3 m/s 758 mmHg 75%
10:00 +10°C° 0 mm 3 m/s 758 mmHg 70%
11:00 +12°C° 0 mm 3 m/s 758 mmHg 66%
12:00 +13°C° 0 mm 3 m/s 757 mmHg 62%
13:00 +13°C° 0 mm 3 m/s 757 mmHg 60%
14:00 +14°C° 0 mm 2 m/s 757 mmHg 59%
15:00 +14°C° 0 mm 2 m/s 756 mmHg 58%
16:00 +13°C° 0 mm 1 m/s 756 mmHg 63%
17:00 +12°C° 0 mm 1 m/s 756 mmHg 67%
18:00 +10°C° 0 mm 0 m/s 755 mmHg 72%
19:00 +10°C° 0 mm 1 m/s 755 mmHg 75%
20:00 +10°C° 0 mm 1 m/s 755 mmHg 77%
21:00 +9°C° 0 mm 1 m/s 755 mmHg 80%
22:00 +9°C° 0 mm 1 m/s 755 mmHg 82%
23:00 +9°C° 0 mm 1 m/s 754 mmHg 84%
Arată mai mult